TimeCST,TemperatureF,Dew PointF,Humidity,Sea Level PressureIn,VisibilityMPH,Wind Direction,Wind SpeedMPH,Gust SpeedMPH,PrecipitationIn,Events,Conditions,WindDirDegrees,DateUTC
12:15 AM,23.7,22.8,96,30.19,4.0,East,9.2,-,N/A,,Overcast,80,2012-11-30 06:15:00
12:35 AM,23.5,22.6,96,30.18,4.0,East,11.5,-,N/A,,Overcast,80,2012-11-30 06:35:00
12:55 AM,23.4,22.5,96,30.17,5.0,East,11.5,-,N/A,,Overcast,80,2012-11-30 06:55:00
1:15 AM,23.0,22.5,98,30.18,5.0,East,13.8,-,N/A,,Overcast,80,2012-11-30 07:15:00
1:35 AM,23.0,22.1,96,30.18,7.0,East,12.7,16.1,N/A,,Overcast,80,2012-11-30 07:35:00
1:55 AM,23.0,22.1,96,30.18,10.0,East,12.7,17.3,N/A,,Overcast,80,2012-11-30 07:55:00
2:15 AM,23.0,21.9,96,30.18,10.0,ENE,11.5,18.4,N/A,,Overcast,70,2012-11-30 08:15:00
2:35 AM,22.8,21.6,95,30.17,10.0,East,12.7,16.1,N/A,,Overcast,80,2012-11-30 08:35:00
2:55 AM,22.6,21.2,94,30.16,10.0,East,12.7,19.6,N/A,,Overcast,80,2012-11-30 08:55:00
3:15 AM,22.6,21.2,94,30.17,10.0,East,11.5,19.6,N/A,,Overcast,80,2012-11-30 09:15:00
3:35 AM,22.8,21.0,93,30.17,10.0,ENE,12.7,19.6,N/A,,Overcast,60,2012-11-30 09:35:00
3:55 AM,22.8,20.8,92,30.17,10.0,ENE,12.7,-,N/A,,Overcast,60,2012-11-30 09:55:00
4:15 AM,22.6,20.3,91,30.16,10.0,East,12.7,-,N/A,,Overcast,80,2012-11-30 10:15:00
4:35 AM,22.6,20.1,90,30.16,10.0,East,13.8,18.4,N/A,,Overcast,80,2012-11-30 10:35:00
4:55 AM,22.8,19.9,89,30.15,10.0,East,13.8,19.6,N/A,,Overcast,80,2012-11-30 10:55:00
5:15 AM,23.0,19.9,88,30.17,10.0,ENE,9.2,-,N/A,,Overcast,60,2012-11-30 11:15:00
5:35 AM,23.0,20.1,89,30.17,10.0,ENE,10.4,-,N/A,,Overcast,70,2012-11-30 11:35:00
5:55 AM,23.0,20.1,89,30.17,10.0,ENE,12.7,-,N/A,,Overcast,70,2012-11-30 11:55:00
6:15 AM,23.2,20.1,88,30.18,10.0,ENE,10.4,-,N/A,,Overcast,70,2012-11-30 12:15:00
6:35 AM,23.0,20.3,89,30.19,10.0,ENE,10.4,-,N/A,,Overcast,70,2012-11-30 12:35:00
6:55 AM,23.0,20.8,91,30.18,10.0,ENE,11.5,-,N/A,,Overcast,60,2012-11-30 12:55:00
7:15 AM,23.0,20.3,89,30.19,10.0,ENE,12.7,-,N/A,,Overcast,60,2012-11-30 13:15:00
7:35 AM,23.0,21.2,93,30.20,10.0,ENE,11.5,-,N/A,,Overcast,60,2012-11-30 13:35:00
7:55 AM,23.4,21.7,94,30.20,10.0,ENE,10.4,-,N/A,,Overcast,70,2012-11-30 13:55:00
8:15 AM,23.7,21.7,92,30.20,10.0,ENE,10.4,-,N/A,,Overcast,60,2012-11-30 14:15:00
8:35 AM,23.9,22.1,93,30.20,10.0,ENE,8.1,-,N/A,,Overcast,60,2012-11-30 14:35:00
8:55 AM,24.1,22.3,93,30.20,7.0,ENE,9.2,-,N/A,,Overcast,70,2012-11-30 14:55:00
9:15 AM,24.4,22.8,94,30.21,3.0,ENE,9.2,-,N/A,,Overcast,60,2012-11-30 15:15:00
9:35 AM,24.8,23.0,93,30.20,4.0,East,9.2,-,N/A,,Overcast,80,2012-11-30 15:35:00
9:55 AM,25.5,23.5,92,30.20,5.0,East,11.5,-,N/A,,Overcast,100,2012-11-30 15:55:00
10:15 AM,26.1,24.3,93,30.20,10.0,East,8.1,-,N/A,,Overcast,90,2012-11-30 16:15:00
10:35 AM,26.2,24.4,93,30.20,10.0,East,9.2,-,N/A,,Overcast,80,2012-11-30 16:35:00
10:55 AM,26.4,24.8,94,30.17,10.0,East,10.4,16.1,N/A,,Overcast,100,2012-11-30 16:55:00
11:15 AM,26.6,25.2,94,30.18,10.0,ENE,10.4,-,N/A,,Overcast,70,2012-11-30 17:15:00
11:35 AM,27.0,25.7,95,30.19,7.0,ENE,10.4,-,N/A,,Overcast,60,2012-11-30 17:35:00
11:55 AM,27.0,25.7,95,30.18,7.0,ENE,9.2,-,N/A,,Overcast,60,2012-11-30 17:55:00
12:15 PM,27.3,26.1,95,30.17,7.0,East,8.1,-,N/A,,Overcast,90,2012-11-30 18:15:00
12:35 PM,27.1,26.2,96,30.18,5.0,ENE,5.8,-,N/A,,Overcast,70,2012-11-30 18:35:00
12:55 PM,27.1,26.4,97,30.17,4.0,East,8.1,-,N/A,,Overcast,80,2012-11-30 18:55:00
1:15 PM,27.1,26.4,97,30.17,2.5,East,10.4,-,N/A,,Overcast,80,2012-11-30 19:15:00
1:35 PM,27.1,26.6,98,30.18,3.0,East,8.1,-,N/A,,Overcast,80,2012-11-30 19:35:00
1:55 PM,27.1,26.6,98,30.18,1.2,East,5.8,-,N/A,,Overcast,90,2012-11-30 19:55:00
2:15 PM,27.1,27.0,99,30.18,1.0,East,4.6,-,N/A,,Overcast,80,2012-11-30 20:15:00
2:35 PM,27.3,27.1,99,30.18,0.8,East,6.9,-,N/A,,Overcast,90,2012-11-30 20:35:00
2:55 PM,27.5,27.5,100,30.19,0.8,ENE,6.9,-,N/A,,Overcast,70,2012-11-30 20:55:00
3:15 PM,27.5,27.5,100,30.18,0.5,East,6.9,-,N/A,Fog,Light Freezing Fog,90,2012-11-30 21:15:00
3:35 PM,27.3,27.3,100,30.18,0.5,East,9.2,-,N/A,Fog,Light Freezing Fog,90,2012-11-30 21:35:00
3:55 PM,27.3,27.3,100,30.18,0.5,East,6.9,-,N/A,Fog,Light Freezing Fog,80,2012-11-30 21:55:00
4:15 PM,27.5,27.5,100,30.20,0.8,ENE,6.9,-,N/A,,Overcast,60,2012-11-30 22:15:00
4:35 PM,27.5,27.5,100,30.21,1.0,ENE,5.8,-,N/A,,Overcast,60,2012-11-30 22:35:00
4:55 PM,27.5,27.5,100,30.21,0.8,East,5.8,-,N/A,,Overcast,80,2012-11-30 22:55:00
5:15 PM,27.5,27.5,100,30.19,0.8,East,8.1,-,N/A,,Overcast,80,2012-11-30 23:15:00
5:35 PM,27.9,27.9,100,30.20,0.8,East,11.5,-,N/A,,Overcast,90,2012-11-30 23:35:00
5:55 PM,27.9,27.9,100,30.19,1.0,East,6.9,-,N/A,,Overcast,80,2012-11-30 23:55:00
6:15 PM,28.0,28.0,100,30.19,1.0,ESE,10.4,-,N/A,,Overcast,110,2012-12-01 00:15:00
6:35 PM,28.4,28.4,100,30.18,1.0,East,10.4,-,N/A,,Overcast,100,2012-12-01 00:35:00
6:55 PM,28.4,28.4,100,30.18,1.0,ESE,6.9,-,N/A,,Overcast,110,2012-12-01 00:55:00
7:15 PM,28.4,28.4,100,30.17,1.0,ESE,6.9,-,N/A,,Overcast,120,2012-12-01 01:15:00
7:35 PM,28.4,28.4,100,30.15,1.0,ESE,13.8,-,N/A,,Overcast,120,2012-12-01 01:35:00
7:55 PM,28.4,28.4,100,30.15,1.2,ESE,13.8,-,N/A,,Overcast,120,2012-12-01 01:55:00
8:15 PM,28.4,28.4,100,30.16,1.5,SE,12.7,-,N/A,,Overcast,130,2012-12-01 02:15:00
8:35 PM,28.6,28.4,99,30.16,3.0,ESE,13.8,17.3,N/A,,Overcast,120,2012-12-01 02:35:00
8:55 PM,28.8,28.4,99,30.16,3.0,SE,11.5,-,N/A,,Overcast,130,2012-12-01 02:55:00
9:15 PM,28.9,28.9,100,30.17,2.5,SE,9.2,-,N/A,,Overcast,140,2012-12-01 03:15:00
9:35 PM,28.9,28.9,100,30.17,2.5,SE,8.1,-,N/A,,Overcast,130,2012-12-01 03:35:00
9:55 PM,29.1,29.1,100,30.17,2.0,SE,8.1,-,N/A,,Overcast,130,2012-12-01 03:55:00
10:15 PM,29.1,29.1,100,30.18,2.0,SE,6.9,-,N/A,,Overcast,140,2012-12-01 04:15:00
10:35 PM,29.3,29.3,100,30.17,1.5,SE,6.9,-,N/A,,Overcast,130,2012-12-01 04:35:00
10:55 PM,29.5,29.5,100,30.17,1.2,ESE,6.9,-,N/A,,Overcast,120,2012-12-01 04:55:00
11:15 PM,29.7,29.7,100,30.17,1.2,SE,4.6,-,N/A,,Overcast,140,2012-12-01 05:15:00
11:35 PM,29.8,29.8,100,30.17,1.2,SE,6.9,-,N/A,,Overcast,130,2012-12-01 05:35:00
11:55 PM,30.0,30.0,100,30.15,1.2,ESE,8.1,-,N/A,,Overcast,120,2012-12-01 05:55:00